Regional Weather Roundup
Issued by NWS Upton, NY

Home | Current Version | Previous Version | Text Only | Print | Product List | Glossary On
Versions: 1 2 3 4 5 6 7 8 9 10 11 12 13 14 15 16 17 18 19 20 21 22 23 24 25 26 27 28 29 30 31 32 33 34 35 36 37 38 39 40 41 42 43 44 45 46 47 48 49 50
000
ASUS41 KOKX 142108
RWROKX

REGIONAL WEATHER ROUNDUP
NATIONAL WEATHER SERVICE NEW YORK NY
400 PM EST THU DEC 14 2017

NOTE: "FAIR" INDICATES FEW OR NO CLOUDS BELOW 12,000 FEET WITH NO
SIGNIFICANT WEATHER AND/OR OBSTRUCTIONS TO VISIBILITY.

NYZ071-072-176-178-NJZ106-104-142200-
NEW YORK CITY METRO AREA

CITY           SKY/WX    TMP DP  RH WIND       PRES   REMARKS
Central Park   CLEAR     29   9  43 NW12G21   29.90R WCI  19
Bronx Bot Gard   N/A     30   9  40 NW3       29.89F
Bronx Lehman C NOT AVBL
LaGuardia APRT PTCLDY    31  13  47 NW22G32   29.89R WCI  18
Queens College NOT AVBL
Kennedy INTL   PTCLDY    29  13  51 NW18      29.89R WCI  16
Breezy Point     N/A    N/A N/A N/A NW16G23     N/A
Brooklyn Coll  NOT AVBL
Staten Island  NOT AVBL
Newark/Liberty PTCLDY    30  10  43 NW17G24   29.90R WCI  18
Teterboro      CLEAR     29   9  43 NW12      29.89R WCI  19
$$

NYZ177-179-078>081-142200-
LONG ISLAND NEW YORK

CITY           SKY/WX    TMP DP  RH WIND       PRES   REMARKS
Jones Beach      N/A    N/A N/A N/A NW22G30     N/A
Wantagh        NOT AVBL
Matinecock PT    N/A    N/A N/A N/A W28G35      N/A
Farmingdale    CLEAR     29   9  43 NW12G30   29.86R WCI  19
MacArthur/ISP  PTCLDY    30  13  49 NW13      29.84R WCI  20
Shirley        CLOUDY    31  16  54 NW14      29.85R WCI  21
Mt Sinai Harb    N/A    N/A N/A N/A NW14G21     N/A
Westhampton    CLOUDY    30  16  56 NW8       29.84R WCI  22
East Hampton   FAIR      28  13  53 NW10G18   29.83R WCI  19
Southold       NOT AVBL
Montauk          N/A     31  15  52 NW17G29   29.83R WCI  19
$$

NYZ052-065-067-142200-
HUDSON VALLEY

CITY           SKY/WX    TMP DP  RH WIND       PRES   REMARKS
White Plains   PTCLDY    26   7  44 NW26      29.85R WCI  10
Larchmont Harb   N/A    N/A N/A N/A W21         N/A
Croton On Huds   N/A    N/A N/A N/A NW20        N/A
Somers         NOT AVBL
Brewster       NOT AVBL
Newburgh       CLEAR     25  10  54 NW12G21   29.87R WCI  14
Montgomery     CLEAR     24   4  42 NW8       29.87R WCI  15
Otisville      NOT AVBL
Warwick        NOT AVBL
Suffern        NOT AVBL
Poughkeepsie   CLEAR     26   6  42 W10       29.87R WCI  16
Albany         PTCLDY    17   2  51 NW13G22   29.90R WCI   4
$$

NJZ001-105-106-008-010-013-015-019>022-104-142200-
NEW JERSEY

CITY           SKY/WX    TMP DP  RH WIND       PRES   REMARKS
Newark/Liberty PTCLDY    30  10  43 NW17G24   29.90R WCI  18
Teterboro      CLEAR     29   9  43 NW12      29.89R WCI  19
Caldwell       CLEAR     28   8  43 NW7       29.90R WCI  21
Somerville     CLEAR     28  11  48 NW13G18   29.89R WCI  17
Linden         FAIR      30  10  43 NW9       29.90R WCI  22
Perth Amboy      N/A    N/A N/A N/A NW17        N/A
Sussex         CLEAR     25   7  46 NW7       29.89R WCI  17
Andover        NOT AVBL
Trenton        CLEAR     31  12  45 NW9G17    29.90R WCI  23
Millville      CLEAR     33  17  51 NW12G20   29.93R WCI  24
Atlantic City  CLEAR     34  17  50 NW17G26   29.91R WCI  23
Wrightstown    PTCLDY    30  15  52 NW12      29.89R WCI  20
Toms River     NOT AVBL
Belmar         PTCLDY    30  14  51 W17G24    29.91R WCI  18
$$

PAZ047>061-062-071-142200-
EASTERN PENNSYLVANIA

CITY           SKY/WX    TMP DP  RH WIND       PRES   REMARKS
Philadelphia   PTCLDY    32  12  43 NW9       29.95R WCI  24
Allentown      CLEAR     29   8  41 NW13G22   29.91R WCI  19
Scranton       CLEAR     23   6  48 NW9       29.89R WCI  13
$$

CTZ002-004>006-009-010-012-RIZ004-006-007-MAZ004-011-015-142200-
SOUTHERN NEW ENGLAND
 IN CT

CITY           SKY/WX    TMP DP  RH WIND       PRES   REMARKS
Bradley INTL   PTCLDY    23   3  42 NW17G26   29.84R WCI   9
Hartford       CLEAR     27   5  39 W10G21    29.85R WCI  17
Danbury        PTCLDY    27   7  42 W10G22    29.85R WCI  17
Wtrbury/Oxford PTCLDY    26   8  46 NW8       29.81R WCI  18
Norwalk Harbor   N/A    N/A N/A N/A W24G30      N/A
Bridgeport     CLEAR     30  12  47 NW13      29.85R WCI  20
Meriden        CLEAR     27   6  41 NW14      29.84R WCI  16
New Haven      CLEAR     29  11  47 NW10G20   29.84R WCI  20
Chester        FAIR      27   9  46 NW7G15    29.81R WCI  19
Groton         CLEAR     28   8  43 NW12      29.82R WCI  18
Wilimantic     CLEAR     26   3  37 NW12G25   29.83R WCI  16

 IN RI

CITY           SKY/WX    TMP DP  RH WIND       PRES   REMARKS
Providence     PTCLDY    27   6  41 NW17G28   29.79R WCI  14
Block Island   PTCLDY    27  13  55 NW12G22   29.81R WCI  17
Westerly       CLEAR     28   5  37 NW10G20   29.82R WCI  19
 IN MA

CITY           SKY/WX    TMP DP  RH WIND       PRES   REMARKS
Boston         PTCLDY    28   4  35 W15       29.74R WCI  16
Worcester      CLEAR     21  -2  36 W10G26    29.71R WCI  10
Westfield      CLEAR     22   4  46 W13G20    29.83R WCI  10
Provincetown   CLEAR     28  14  55 W17G26    29.73R WCI  16
Nantucket      CLEAR     27  18  69 W13       29.75R WCI  16
$$

ANZ330-335-338-340-345-350-353-355-142200-
COASTAL MARINE OBSERVATIONS


STATION/POSITION TIME  SKY/WX   TEMP    WIND        PRES    VSBY  WAVE
                                AIR SEA DIR/SP/G                  HT/PER
                 (UTC)          (F)     (DEG/KT/KT) (MB)    (MI)  (FT/S)
NY HARB ENTRANCE 1950            34 53  290/ 21/ 27 1009.5          3/ 8
20 S FIRE ISLAND 1950            34 51  320/ 19/ 23 1009.3          6/ 8
GREAT SOUTH BAY  NOT AVBL
HUDSON CANYON    1950            38 56  330/ 23/ 31 1008.3          9/ 8
KINGS POINT      1948            31 43  360/ 17/ 22 1011.5
EXECUTION ROCKS  1945            36     280/ 19/ 25   N/A
WESTERN LI SOUND NOT AVBL
CENTRAL LI SOUND NOT AVBL
ROBBINS REEF     1948            31     300/ 15/ 20 1011.4
$$


>>>>>>>>>>>>>>>>>>>>>>>>>>>> KEY <<<<<<<<<<<<<<<<<<<<<<<<<<<
>                                                          <
>     SKY/WX - Sky Condition/Present Weather               <
>     TMP    - Temperature in Fahrenheit                   <
>     DP     - Dew Point in Fahrenheit                     <
>     RH     - Relative Humidity in Percent                <
>     WIND   - Direction (from) and Speed in MPH           <
>     PRES   - Mean Sea Level Pressure (inches of Hg)      <
>     WCI    - Wind Chill Index                            <
>     VSB    - VISIBILITY IN MILES                         <
>     HX     - HEAT INDEX                                  <
>     TC     - TEMPERATURE IN CELSIUS                      <
>     VRB    - VARIABLE WIND DIRECTION                     <
>                                                          <
>>>>>>>>>>>>>>>>>>>>>>>>>>>> KEY <<<<<<<<<<<<<<<<<<<<<<<<<<<



USA.gov is the U.S. government's official web portal to all federal, state and local government web resources and services.